Regional Weather Roundup
Issued by NWS Upton, NY

Current Version | Previous Version | Graphics & Text | Print | Product List | Glossary Off
Versions: 1 2 3 4 5 6 7 8 9 10 11 12 13 14 15 16 17 18 19 20 21 22 23 24 25 26 27

000
ASUS41 KOKX 170108
RWROKX

REGIONAL WEATHER ROUNDUP
NATIONAL WEATHER SERVICE NEW YORK NY
900 PM EDT WED AUG 16 2017

NOTE: "FAIR" INDICATES FEW OR NO CLOUDS BELOW 12,000 FEET WITH NO
SIGNIFICANT WEATHER AND/OR OBSTRUCTIONS TO VISIBILITY.

NYZ071-072-176-178-NJZ106-104-170200-
NEW YORK CITY METRO AREA

CITY           SKY/WX    TMP DP  RH WIND       PRES   REMARKS
Central Park   CLEAR     79  60  52 CALM      30.02R
Bronx Bot Gard   N/A     73  59  60 E2        30.00S
LaGuardia APRT PTCLDY    81  63  54 CALM      29.98R
Kennedy INTL   PTCLDY    76  72  87 S8        29.99R
Breezy Point     N/A     79 N/A N/A NW6         N/A
Newark/Liberty PTCLDY    80  58  46 W6        29.98R
Teterboro      CLEAR     81  60  48 NW5       29.97R
$$

NYZ177-179-078>081-170200-
LONG ISLAND NEW YORK

CITY           SKY/WX    TMP DP  RH WIND       PRES   REMARKS
Jones Beach      N/A     73 N/A N/A S3          N/A
Matinecock PT    N/A     79 N/A N/A SE3         N/A
Farmingdale    CLEAR     76  69  79 SW8       29.99R
MacArthur/ISP  PTCLDY    75  65  70 CALM      29.99R
Shirley        CLEAR     71  65  81 CALM      29.99R
Mt Sinai Harb    N/A    N/A N/A N/A MISG        N/A
Westhampton    CLEAR     69  61  75 CALM      30.00R
East Hampton   FAIR      69  66  92 CALM      29.98R
Montauk          N/A     76  68  76 W3        29.99R
$$

NYZ052-065-067-170200-
HUDSON VALLEY

CITY           SKY/WX    TMP DP  RH WIND       PRES   REMARKS
White Plains   PTCLDY    73  65  75 NW3       30.00R
Larchmont Harb   N/A     77 N/A N/A MISG        N/A
Croton On Huds   N/A     75 N/A N/A NE2         N/A
Newburgh       PTCLDY    75  66  73 CALM      30.02R
Montgomery     PTCLDY    70  66  87 CALM      30.01R
Poughkeepsie   MOCLDY    72  63  73 CALM      29.99R
Albany         PTCLDY    70  56  61 N5        30.02R
$$

NJZ001-105-106-008-010-013-015-019>022-104-170200-
NEW JERSEY

CITY           SKY/WX    TMP DP  RH WIND       PRES   REMARKS
Newark/Liberty PTCLDY    80  58  46 W6        29.98R
Teterboro      CLEAR     81  60  48 NW5       29.97R
Caldwell       CLEAR     75  64  68 CALM      30.00R
Somerville     CLEAR     70  68  93 CALM      29.98R
Linden         FAIR      79  60  52 NW3       29.99R
Perth Amboy      N/A     79 N/A N/A NW3         N/A
Sussex         CLEAR     69  66  90 SW5       30.01R
Andover          N/A     67  65  93 CALM      30.02R
Trenton        PTCLDY    79  67  66 CALM      29.99R
Millville      CLEAR     75  72  90 CALM      29.99R
Atlantic City  CLEAR     76  72  87 VRB3      29.99R
Wrightstown    PTCLDY    75  71  86 S3        29.97R
Toms River     PTCLDY    72  69  90 CALM      30.01R
Belmar         CLEAR     74  70  87 S5        30.01R
$$

PAZ047>061-062-071-170200-
EASTERN PENNSYLVANIA

CITY           SKY/WX    TMP DP  RH WIND       PRES   REMARKS
Philadelphia   PTCLDY    83  63  50 N7        30.00R
Allentown      CLEAR     75  65  70 CALM      30.01R
Scranton       CLEAR     68  61  78 E5        30.04S
$$

CTZ002-004>006-009-010-012-RIZ004-006-007-MAZ004-011-015-170200-
SOUTHERN NEW ENGLAND
 IN CT

CITY           SKY/WX    TMP DP  RH WIND       PRES   REMARKS
Bradley INTL   PTCLDY    72  61  68 NW6       29.99R
Hartford       CLEAR     78  60  53 NW5       29.98R
Danbury        PTCLDY    70  65  84 SW3       30.02R
Wtrbury/Oxford CLEAR     68  61  78 N3        30.03R
Norwalk Harbor   N/A     75 N/A N/A NW1         N/A
Bridgeport     CLEAR     78  60  53 N5        29.98R
Meriden        CLEAR     68  62  81 CALM      29.99R
New Haven      CLEAR     76  62  62 CALM      29.99R
Chester        NOT AVBL
Groton         CLEAR     72  66  81 CALM      29.97R
Wilimantic     MOCLDY    71  64  78 CALM      29.99R

 IN RI

CITY           SKY/WX    TMP DP  RH WIND       PRES   REMARKS
Providence     PTCLDY    77  60  55 NW3       29.97R
Block Island   PTCLDY    73  67  81 W8        29.98R
Westerly       PTCLDY    72  67  84 CALM      29.98R
 IN MA

CITY           SKY/WX    TMP DP  RH WIND       PRES   REMARKS
Boston         PTCLDY    75  54  47 N7        29.97R
Worcester      CLEAR     70  54  56 N6        30.01R
Westfield      CLEAR     72  60  66 W5        29.99R
Provincetown   CLEAR     70  58  65 NW7       29.98R
Nantucket      CLEAR     67  65  93 SW7       29.98R
$$

ANZ330-335-338-340-345-350-353-355-170200-
COASTAL MARINE OBSERVATIONS


STATION/POSITION TIME  SKY/WX   TEMP    WIND        PRES    VSBY  WAVE
                                AIR SEA DIR/SP/G                  HT/PER
                 (UTC)          (F)     (DEG/KT/KT) (MB)    (MI)  (FT/S)
NY HARB ENTRANCE 2350            77 77  220/ 12/ 14 1014.4          3/ 9
GREAT SOUTH BAY  0030            78 79  220/  6/  8   N/A
23 SSW MONTAUK P 2350            74 72              1015.1          4/11
15 E BARNEGAT LI 0030               76                N/A           3/ 8
HUDSON CANYON    2350            75 75  220/  6/  8 1014.8          4/11
KINGS POINT      0024            78 74  140/  2/  3 1015.0
EXECUTION ROCKS  NOT AVBL
WESTERN LI SOUND NOT AVBL
CENTRAL LI SOUND NOT AVBL
EASTERN LI SOUND NOT AVBL
ROBBINS REEF     0030                   310/  6/  7 1015.7
$$


>>>>>>>>>>>>>>>>>>>>>>>>>>>> KEY <<<<<<<<<<<<<<<<<<<<<<<<<<<
>                                                          <
>     SKY/WX - Sky Condition/Present Weather               <
>     TMP    - Temperature in Fahrenheit                   <
>     DP     - Dew Point in Fahrenheit                     <
>     RH     - Relative Humidity in Percent                <
>     WIND   - Direction (from) and Speed in MPH           <
>     PRES   - Mean Sea Level Pressure (inches of Hg)      <
>     WCI    - Wind Chill Index                            <
>     VSB    - VISIBILITY IN MILES                         <
>     HX     - HEAT INDEX                                  <
>     TC     - TEMPERATURE IN CELSIUS                      <
>     VRB    - VARIABLE WIND DIRECTION                     <
>                                                          <
>>>>>>>>>>>>>>>>>>>>>>>>>>>> KEY <<<<<<<<<<<<<<<<<<<<<<<<<<<




USA.gov is the U.S. government's official web portal to all federal, state and local government web resources and services.